Regional Weather Roundup
Issued by NWS Jackson, KY

Home | Current Version | Previous Version | Text Only | Print | Product List | Glossary On
Versions: 1 2 3 4 5 6 7 8 9 10 11 12 13 14 15 16 17 18 19 20 21 22 23 24 25 26 27 28 29 30 31 32 33 34 35 36 37 38 39 40 41 42 43 44 45 46 47 48 49 50
000
ASUS43 KJKL 160810
RWRJKL

EAST KENTUCKY HOURLY WEATHER ROUNDUP
NATIONAL WEATHER SERVICE JACKSON KY
300 AM EST TUE JAN 16 2018

NOTE: "FAIR" INDICATES FEW OR NO CLOUDS BELOW 12,000 FEET WITH
NO SIGNIFICANT WEATHER AND/OR OBSTRUCTIONS TO VISIBILITY.

* THESE REPORTS ARE NOT UNDER NWS QUALITY CONTROL AND MAY NOT
  REPORT WEATHER SUCH AS PRECIPITATION AND FOG.

KYZ079-080-083-085-087-088-110-112-115-119-120-160900
...EASTERN KENTUCKY...

CITY           SKY/WX    TMP DP  RH WIND       PRES   REMARKS
JACKSON        CLOUDY    30  25  81 NW7       30.34R WCI  23
LONDON         CLOUDY    29  24  82 NW8       30.36R WCI  21
SOMERSET*      CLOUDY    28  23  80 N7        30.41R WCI  21
MONTICELLO*    FLURRIES  26  23  88 NW12      30.42R WCI  16
WILLIAMSBURG*  CLOUDY    32  28  86 CALM      30.36R
MIDDLESBORO*   CLOUDY    30  27  88 CALM      30.34R
HARLAN APT*    CLOUDY    34  23  64 CALM      30.31S
PIKE CO APT*   CLOUDY    32  27  84 NW3       30.32R
BIG SANDY APT* CLOUDY    32  26  77 CALM      30.34R
MOREHEAD APT*  LGT SNOW  25  19  80 NW13      30.40R WCI  13
ASHLAND*       CLOUDY    31  25  78 NW5       30.39R WCI  26
$$

KYZ035-036-041-042-044-050-067-078-099-160900
...CENTRAL KENTUCKY...

CITY           SKY/WX    TMP DP  RH WIND       PRES   REMARKS
MT STERLING*   LGT SNOW  23  19  86 NW8       30.42R WCI  14
FLEMING/MASON* LGT SNOW  20  18  89 NW12      30.42R WCI   8
DANVILLE*      LGT SNOW  19  16  86 N9        30.42S WCI   9
LEXINGTON      LGT SNOW  16  11  80 NW8       30.42R WCI   5
FRANKFORT      LGT SNOW  15   9  76 NW8       30.44R WCI   4
LOUISVILLE     LGT SNOW  15  10  80 NW10      30.50R WCI   2
LEBANON*       LGT SNOW  16  10  79 NW10      30.45R WCI   3
GLASGOW*       LGT SNOW  17  14  89 N8        30.48R WCI   6
BOWLING GREEN  LGT SNOW  17  14  88 NW5       30.52R FOG     WCI  10
$$

KYZ091>093-OHZ055-061-077-WVZ005-015-034-035-042-160900
...SOUTHERN OHIO/WEST VIRGINIA...

CITY           SKY/WX    TMP DP  RH WIND       PRES   REMARKS
COVINGTON      CLOUDY    13   7  77 W10       30.42R WCI   0
COLUMBUS       LGT SNOW  17  13  84 W10       30.37R FOG     WCI   5
DAYTON         MOCLDY    10   5  80 W14       30.39R WCI  -6
WILMINGTON     CLOUDY    11   6  81 W12       30.39R WCI  -3
HUNTINGTON     CLOUDY    31  21  66 W3        30.36R
CHARLESTON     CLOUDY    33  24  69 CALM      30.34R
BECKLEY          N/A     32  21  64 S6        30.27S WCI  26
BLUEFIELD        N/A     30  19  63 SW7       30.27F WCI  23
LOGAN CO APT*  CLOUDY    34  23  64 CALM      30.30R
$$

VAZ002-007-008-TNZ017-027-036-066-071-160900
...SOUTHWEST VIRGINIA/EAST TENNESSEE...

CITY           SKY/WX    TMP DP  RH WIND       PRES   REMARKS
WISE*            N/A     32  23  69 S7        30.28S WCI  26
JONESVILLE*      N/A     25  25 100 CALM      30.35S
ABINGDON*        N/A     27  24  88 CALM      30.31S
BRISTOL          N/A     22  21  96 CALM      30.34R
MORRISTOWN*    PTSUNNY   27  25  93 CALM      30.32S
SEVIERVILLE*   MOSUNNY   23  21  93 CALM      30.33S
KNOXVILLE      MOCLDY    29  25  85 NW3       30.32F
LAFOLLETTE*    CLOUDY    28  25  86 CALM      30.37R
OAK RIDGE        N/A     27  24  89 CALM      30.35S
CROSSVILLE     CLOUDY    28  24  85 N3        30.32R
NASHVILLE      CLOUDY    22  14  71 N13       30.49R WCI  10
$$

...KEY TO REMARKS...
VSB - VISIBILITY IN MILES
WCI - WIND CHILL INDEX
HX  - HEAT INDEX

$$



USA.gov is the U.S. government's official web portal to all federal, state and local government web resources and services.